Regional Weather Roundup
Issued by NWS

Home | Current Version | Previous Version | Graphics & Text | Print | Product List | Glossary On
Versions: 1 2 3 4 5 6 7 8 9 10 11 12 13 14 15 16 17 18 19 20 21 22 23 24 25 26 27 28 29 30 31 32 33 34 35 36 37 38 39 40 41 42 43 44 45 46 47 48 49 50
000
ASUS45 KSLC 240810
RWRUT

UTAH REGIONAL WEATHER ROUNDUP
NATIONAL WEATHER SERVICE SALT LAKE CITY UT
200 AM MDT TUE APR 24 2018

UTZ001>011-023>025-240900-

NORTHERN UTAH

CITY           SKY/WX    TMP DP  RH WIND       PRES   REMARKS
BRIGHAM CITY   CLEAR     44  32  62 SW6       30.25S
HILL AFB       CLEAR     45  32  59 NE13      30.23R
LOGAN          CLEAR     41  33  73 SE3       30.28R
OGDEN          CLEAR     43  34  70 NW9       30.21S
SALT LAKE CITY CLEAR     46  36  68 N3        30.21R
TOOELE VALLEY  CLEAR     45  37  76 CALM      30.24R
WENDOVER       CLEAR     50  29  44 NE15G25   30.26R
HEBER CITY       N/A     34  19  55 E6        30.23R WCI  29
WEST JORDAN    CLEAR     46  35  64 NW12      30.22S

$$

UTZ011>015-024>027-240900-

CENTRAL/NORTHEAST UTAH

CITY           SKY/WX    TMP DP  RH WIND       PRES   REMARKS
PROVO AIRPORT  CLEAR     47  31  53 SE6       30.21R
MOAB/CANYONLAN CLOUDY    64  28  25 SE9G20    30.05F
DELTA          CLEAR     46  19  34 NE10      30.19R
PRICE          CLEAR     46  19  34 NW9       30.18S
ROOSEVELT      PTCLDY    46  19  34 CALM      30.23R
VERNAL         PTCLDY    46  24  42 E12       30.22R

$$

UTZ013>016-019>022-027-240900-

SOUTHERN UTAH

CITY           SKY/WX    TMP DP  RH WIND       PRES   REMARKS
BRYCE CANYON   CLEAR     35  26  69 W3        30.25R
CEDAR CITY     CLEAR     45  35  68 SE3       30.17R
MILFORD        PTCLDY    48  30  49 MISG      30.17R
ST GEORGE      SUNNY     69  32  25 NE8       29.99R
HANKSVILLE     MOCLDY    61  25  25 E6        30.09R
BLANDING         N/A     55  25  31 CALM      30.18R

$$

REGIONAL REPORTS     COLORADO/ARIZONA

CITY           SKY/WX    TMP DP  RH WIND       PRES   REMARKS
CRAIG, CO      CLOUDY    39  32  76 SW12      30.27R WCI  32
GRAND JUNCTION CLOUDY    61  26  26 NW10      30.13R
RIFLE, CO      CLOUDY    53  29  39 NW22G29   30.18R
MONTROSE, CO   CLOUDY    56  34  43 NE14      30.19R
CORTEZ, CO     PTCLDY    48  19  31 E5        30.12R
COLORADO CITY    N/A     45  27  49 CALM      30.12R
PAGE, AZ       PTCLDY    68  20  16 S3        30.04R
GRAND CANYON   PTCLDY    34  14  43 CALM      30.21F
KINGMAN, AZ    MOCLDY    68  23  18 S12       30.02S
FLAGSTAFF, AZ  CLEAR     41  16  36 S3        30.23F

$$

REGIONAL REPORTS    NEVADA/IDAHO/WYOMING

CITY           SKY/WX    TMP DP  RH WIND       PRES   REMARKS
LAS VEGAS, NV  MOCLDY    75  23  14 S8        29.90S
ELY, NY        CLEAR     41  17  38 NE14      30.24R
ELKO, NV       CLEAR     45  18  34 NE8       30.25R
POCATELLO, ID  CLEAR     36  31  82 E7        30.34S WCI  30
BURLEY, ID     MOCLDY    40  33  76 VRB7      30.31R
FORT BRIDGER,  SUNNY     30  25  80 SE10      30.33R WCI  21
EVANSTON, WY   CLEAR     32  27  81 N9        30.28S WCI  24
ROCK SPRINGS,  CLOUDY    32  24  72 NE18      30.35S WCI  20
KEMMERER, WY   PTCLDY    30  25  80 E5        30.33R WCI  25

$$



USA.gov is the U.S. government's official web portal to all federal, state and local government web resources and services.